TimeAST,TemperatureF,Dew PointF,Humidity,Sea Level PressureIn,VisibilityMPH,Wind Direction,Wind SpeedMPH,Gust SpeedMPH,PrecipitationIn,Events,Conditions,WindDirDegrees,DateUTC
2:00 AM,77.0,75.2,94,29.86,6.2,Calm,Calm,-,N/A,,Partly Cloudy,0,2013-09-07 06:00:00
5:00 AM,75.2,73.4,94,29.83,6.2,Calm,Calm,-,N/A,,Partly Cloudy,0,2013-09-07 09:00:00
8:00 AM,78.8,75.2,89,29.86,6.2,Calm,Calm,-,N/A,,Mostly Cloudy,0,2013-09-07 12:00:00
9:00 AM,86.0,78.8,79,29.89,6.2,Calm,Calm,-,N/A,,Mostly Cloudy,0,2013-09-07 13:00:00
10:00 AM,87.8,78.8,75,29.92,6.2,Calm,Calm,-,N/A,,Scattered Clouds,0,2013-09-07 14:00:00
11:00 AM,88,79,68,29.93,10,Calm,Calm,,,,Partly Cloudy,,2013-09-07 15:00:00
11:00 AM,87.8,78.8,75,29.92,6.2,Calm,Calm,-,N/A,,Scattered Clouds,0,2013-09-07 15:00:00
12:00 PM,87.8,78.8,75,29.92,6.2,NNE,5.8,-,N/A,,Scattered Clouds,30,2013-09-07 16:00:00
1:00 PM,89.6,78.8,70,29.89,6.2,NNE,10.4,-,N/A,,Scattered Clouds,30,2013-09-07 17:00:00
2:00 PM,88,79,68,29.88,10,NNE,8.9,,,,Partly Cloudy,30,2013-09-07 18:00:00
2:00 PM,87.8,78.8,75,29.86,6.2,NNE,5.8,-,N/A,,Partly Cloudy,30,2013-09-07 18:00:00
3:00 PM,87.8,80.6,79,29.83,6.2,NNE,6.9,-,N/A,,Partly Cloudy,30,2013-09-07 19:00:00
4:00 PM,86.0,78.8,79,29.83,6.2,Calm,Calm,-,N/A,,Scattered Clouds,0,2013-09-07 20:00:00
5:00 PM,86,79,74,29.87,10,ENE,6.7,,,,Mostly Cloudy,60,2013-09-07 21:00:00
5:00 PM,86.0,78.8,79,29.86,6.2,ENE,6.9,-,N/A,,Mostly Cloudy,60,2013-09-07 21:00:00
6:00 PM,78.8,73.4,83,29.89,3.7,South,9.2,-,N/A,Rain,Rain,180,2013-09-07 22:00:00
7:00 PM,75.2,73.4,94,29.89,6.2,SW,6.9,-,N/A,,Scattered Clouds,220,2013-09-07 23:00:00
8:00 PM,75,73,90,29.90,10,Calm,Calm,,,,Partly Cloudy,,2013-09-08 00:00:00
8:00 PM,75.2,73.4,94,29.89,6.2,Calm,Calm,-,N/A,,Scattered Clouds,0,2013-09-08 00:00:00
11:00 PM,72,71,97,29.94,5,Calm,Calm,,,,Haze,,2013-09-08 03:00:00
11:00 PM,75.2,73.4,94,29.89,6.2,Calm,Calm,-,N/A,,Scattered Clouds,0,2013-09-08 03:00:00